Year,Month,Day,Hour,Minute,Value (Times are PST for insolation in W/m^2)
2005,09,01,00,00,0.00
2005,09,01,00,01,0.00
2005,09,01,00,02,0.00
2005,09,01,00,03,0.00
2005,09,01,00,04,0.00
2005,09,01,00,05,0.00
2005,09,01,00,06,0.00
2005,09,01,00,07,0.00
2005,09,01,00,08,0.00
2005,09,01,00,09,0.00
2005,09,01,00,10,0.00
2005,09,01,00,11,0.00
2005,09,01,00,12,0.00
2005,09,01,00,13,0.00
2005,09,01,00,14,0.00
2005,09,01,00,15,0.00
2005,09,01,00,16,0.00
2005,09,01,00,17,0.00
2005,09,01,00,18,0.00
2005,09,01,00,19,0.00
2005,09,01,00,20,0.00
2005,09,01,00,21,0.00
2005,09,01,00,22,0.00
2005,09,01,00,23,0.00
2005,09,01,00,24,0.00
2005,09,01,00,25,0.00
2005,09,01,00,26,0.00
2005,09,01,00,27,0.00
2005,09,01,00,28,0.00
2005,09,01,00,29,0.00
2005,09,01,00,30,0.00
2005,09,01,00,31,0.00
2005,09,01,00,32,0.00
2005,09,01,00,33,0.00
2005,09,01,00,34,0.00
2005,09,01,00,35,0.00
2005,09,01,00,36,0.00
2005,09,01,00,37,0.00
2005,09,01,00,38,0.00
2005,09,01,00,39,0.00
2005,09,01,00,40,0.00
2005,09,01,00,41,0.00
2005,09,01,00,42,0.00
2005,09,01,00,43,0.00
2005,09,01,00,44,0.00
2005,09,01,00,45,0.00
2005,09,01,00,46,0.00
2005,09,01,00,47,0.00
2005,09,01,00,48,0.00
2005,09,01,00,49,0.00
2005,09,01,00,50,0.00
2005,09,01,00,51,0.00
2005,09,01,00,52,0.00
2005,09,01,00,53,0.00
2005,09,01,00,54,0.00
2005,09,01,00,55,0.00
2005,09,01,00,56,0.00
2005,09,01,00,57,0.00
2005,09,01,00,58,0.00
2005,09,01,00,59,0.00
2005,09,01,01,00,0.00
2005,09,01,01,01,0.00
2005,09,01,01,02,0.00
2005,09,01,01,03,0.00
2005,09,01,01,04,0.00
2005,09,01,01,05,0.00
2005,09,01,01,06,0.00
2005,09,01,01,07,0.00
2005,09,01,01,08,0.00
2005,09,01,01,09,0.00
2005,09,01,01,10,0.00
2005,09,01,01,11,0.00
2005,09,01,01,12,0.00
2005,09,01,01,13,0.00
2005,09,01,01,14,0.00
2005,09,01,01,15,0.00
2005,09,01,01,16,0.00
2005,09,01,01,17,0.00
2005,09,01,01,18,0.00
2005,09,01,01,19,0.00
2005,09,01,01,20,0.00
2005,09,01,01,21,0.00
2005,09,01,01,22,0.00
2005,09,01,01,23,0.00
2005,09,01,01,24,0.00
2005,09,01,01,25,0.00
2005,09,01,01,26,0.00
2005,09,01,01,27,0.00
2005,09,01,01,28,0.00
2005,09,01,01,29,0.00
2005,09,01,01,30,0.00
2005,09,01,01,31,0.00
2005,09,01,01,32,0.00
2005,09,01,01,33,0.00
2005,09,01,01,34,0.00
2005,09,01,01,35,0.00
2005,09,01,01,36,0.00
2005,09,01,01,37,0.00
2005,09,01,01,38,0.00
2005,09,01,01,39,0.00
2005,09,01,01,40,0.00
2005,09,01,01,41,0.00
2005,09,01,01,42,0.00
2005,09,01,01,43,0.00
2005,09,01,01,44,0.00
2005,09,01,01,45,0.00
2005,09,01,01,46,0.00
2005,09,01,01,47,0.00
2005,09,01,01,48,0.00
2005,09,01,01,49,0.00
2005,09,01,01,50,0.00
2005,09,01,01,51,0.00
2005,09,01,01,52,0.00
2005,09,01,01,53,0.00
2005,09,01,01,54,0.00
2005,09,01,01,55,0.00
2005,09,01,01,56,0.00
2005,09,01,01,57,0.00
2005,09,01,01,58,0.00
2005,09,01,01,59,0.00
2005,09,01,02,00,0.00
2005,09,01,02,01,0.00
2005,09,01,02,02,0.00
2005,09,01,02,03,0.00
2005,09,01,02,04,0.00
2005,09,01,02,05,0.00
2005,09,01,02,06,0.00
2005,09,01,02,07,0.00
2005,09,01,02,08,0.00
2005,09,01,02,09,0.00
2005,09,01,02,10,0.00
2005,09,01,02,11,0.00
2005,09,01,02,12,0.00
2005,09,01,02,13,0.00
2005,09,01,02,14,0.00
2005,09,01,02,15,0.00
2005,09,01,02,16,0.00
2005,09,01,02,17,0.00
2005,09,01,02,18,0.00
2005,09,01,02,19,0.00
2005,09,01,02,20,0.00
2005,09,01,02,21,0.00
2005,09,01,02,22,0.00
2005,09,01,02,23,0.00
2005,09,01,02,24,0.00
2005,09,01,02,25,0.00
2005,09,01,02,26,0.00
2005,09,01,02,27,0.00
2005,09,01,02,28,0.00
2005,09,01,02,29,0.00
2005,09,01,02,30,0.00
2005,09,01,02,31,0.00
2005,09,01,02,32,0.00
2005,09,01,02,33,0.00
2005,09,01,02,34,0.00
2005,09,01,02,35,0.00
2005,09,01,02,36,0.00
2005,09,01,02,37,0.00
2005,09,01,02,38,0.00
2005,09,01,02,39,0.00
2005,09,01,02,40,0.00
2005,09,01,02,41,0.00
2005,09,01,02,42,0.00
2005,09,01,02,43,0.00
2005,09,01,02,44,0.00
2005,09,01,02,45,0.00
2005,09,01,02,46,0.00
2005,09,01,02,47,0.00
2005,09,01,02,48,0.00
2005,09,01,02,49,0.00
2005,09,01,02,50,0.00
2005,09,01,02,51,0.00
2005,09,01,02,52,0.00
2005,09,01,02,53,0.00
2005,09,01,02,54,0.00
2005,09,01,02,55,0.00
2005,09,01,02,56,0.00
2005,09,01,02,57,0.00
2005,09,01,02,58,0.00
2005,09,01,02,59,0.00
2005,09,01,03,00,0.00
2005,09,01,03,01,0.00
2005,09,01,03,02,0.00
2005,09,01,03,03,0.00
2005,09,01,03,04,0.00
2005,09,01,03,05,0.00
2005,09,01,03,06,0.00
2005,09,01,03,07,0.00
2005,09,01,03,08,0.00
2005,09,01,03,09,0.00
2005,09,01,03,10,0.00
2005,09,01,03,11,0.00
2005,09,01,03,12,0.00
2005,09,01,03,13,0.00
2005,09,01,03,14,0.00
2005,09,01,03,15,0.00
2005,09,01,03,16,0.00
2005,09,01,03,17,0.00
2005,09,01,03,18,0.00
2005,09,01,03,19,0.00
2005,09,01,03,20,0.00
2005,09,01,03,21,0.00
2005,09,01,03,22,0.00
2005,09,01,03,23,0.00
2005,09,01,03,24,0.00
2005,09,01,03,25,0.00
2005,09,01,03,26,0.00
2005,09,01,03,27,0.00
2005,09,01,03,28,0.00
2005,09,01,03,29,0.00
2005,09,01,03,30,0.00
2005,09,01,03,31,0.00
2005,09,01,03,32,0.00
2005,09,01,03,33,0.00
2005,09,01,03,34,0.00
2005,09,01,03,35,0.00
2005,09,01,03,36,0.00
2005,09,01,03,37,0.00
2005,09,01,03,38,0.00
2005,09,01,03,39,0.00
2005,09,01,03,40,0.00
2005,09,01,03,41,0.00
2005,09,01,03,42,0.00
2005,09,01,03,43,0.00
2005,09,01,03,44,0.00
2005,09,01,03,45,0.00
2005,09,01,03,46,0.00
2005,09,01,03,47,0.00
2005,09,01,03,48,0.00
2005,09,01,03,49,0.00
2005,09,01,03,50,0.00
2005,09,01,03,51,0.00
2005,09,01,03,52,0.00
2005,09,01,03,53,0.00
2005,09,01,03,54,0.00
2005,09,01,03,55,0.00
2005,09,01,03,56,0.00
2005,09,01,03,57,0.00
2005,09,01,03,58,0.00
2005,09,01,03,59,0.00
2005,09,01,04,00,0.00
2005,09,01,04,01,0.00
2005,09,01,04,02,0.00
2005,09,01,04,03,0.00
2005,09,01,04,04,0.00
2005,09,01,04,05,0.00
2005,09,01,04,06,0.00
2005,09,01,04,07,0.00
2005,09,01,04,08,0.00
2005,09,01,04,09,0.00
2005,09,01,04,10,0.00
2005,09,01,04,11,0.00
2005,09,01,04,12,0.00
2005,09,01,04,13,0.00
2005,09,01,04,14,0.00
2005,09,01,04,15,0.00
2005,09,01,04,16,0.00
2005,09,01,04,17,0.00
2005,09,01,04,18,0.00
2005,09,01,04,19,0.00
2005,09,01,04,20,0.00
2005,09,01,04,21,0.00
2005,09,01,04,22,0.00
2005,09,01,04,23,0.00
2005,09,01,04,24,0.00
2005,09,01,04,25,0.00
2005,09,01,04,26,0.00
2005,09,01,04,27,0.00
2005,09,01,04,28,0.00
2005,09,01,04,29,0.00
2005,09,01,04,30,0.00
2005,09,01,04,31,0.00
2005,09,01,04,32,0.00
2005,09,01,04,33,0.00
2005,09,01,04,34,0.00
2005,09,01,04,35,0.00
2005,09,01,04,36,0.00
2005,09,01,04,37,0.00
2005,09,01,04,38,0.00
2005,09,01,04,39,0.00
2005,09,01,04,40,0.00
2005,09,01,04,41,0.00
2005,09,01,04,42,0.00
2005,09,01,04,43,0.00
2005,09,01,04,44,0.00
2005,09,01,04,45,0.00
2005,09,01,04,46,0.00
2005,09,01,04,47,0.00
2005,09,01,04,48,0.00
2005,09,01,04,49,0.00
2005,09,01,04,50,0.00
2005,09,01,04,51,0.00
2005,09,01,04,52,0.00
2005,09,01,04,53,0.00
2005,09,01,04,54,0.00
2005,09,01,04,55,0.00
2005,09,01,04,56,0.00
2005,09,01,04,57,0.00
2005,09,01,04,58,0.00
2005,09,01,04,59,0.00
2005,09,01,05,00,0.00
2005,09,01,05,01,0.00
2005,09,01,05,02,0.00
2005,09,01,05,03,0.00
2005,09,01,05,04,0.00
2005,09,01,05,05,0.00
2005,09,01,05,06,0.00
2005,09,01,05,07,0.00
2005,09,01,05,08,0.00
2005,09,01,05,09,0.00
2005,09,01,05,10,0.00
2005,09,01,05,11,0.00
2005,09,01,05,12,0.00
2005,09,01,05,13,0.00
2005,09,01,05,14,0.00
2005,09,01,05,15,0.00
2005,09,01,05,16,0.00
2005,09,01,05,17,0.00
2005,09,01,05,18,0.00
2005,09,01,05,19,0.00
2005,09,01,05,20,0.00
2005,09,01,05,21,0.00
2005,09,01,05,22,0.00
2005,09,01,05,23,0.00
2005,09,01,05,24,0.00
2005,09,01,05,25,0.00
2005,09,01,05,26,0.00
2005,09,01,05,27,0.00
2005,09,01,05,28,0.00
2005,09,01,05,29,0.00
2005,09,01,05,30,0.00
2005,09,01,05,31,0.00
2005,09,01,05,32,0.00
2005,09,01,05,33,0.00
2005,09,01,05,34,0.00
2005,09,01,05,35,0.00
2005,09,01,05,36,0.00
2005,09,01,05,37,0.00
2005,09,01,05,38,0.00
2005,09,01,05,39,0.00
2005,09,01,05,40,0.00
2005,09,01,05,41,0.00
2005,09,01,05,42,0.00
2005,09,01,05,43,0.00
2005,09,01,05,44,0.00
2005,09,01,05,45,0.00
2005,09,01,05,46,0.00
2005,09,01,05,47,0.00
2005,09,01,05,48,0.00
2005,09,01,05,49,0.00
2005,09,01,05,50,0.00
2005,09,01,05,51,0.00
2005,09,01,05,52,0.00
2005,09,01,05,53,0.00
2005,09,01,05,54,0.00
2005,09,01,05,55,0.00
2005,09,01,05,56,0.00
2005,09,01,05,57,0.00
2005,09,01,05,58,0.00
2005,09,01,05,59,0.00
2005,09,01,06,00,0.00
2005,09,01,06,01,0.00
2005,09,01,06,02,0.00
2005,09,01,06,03,0.00
2005,09,01,06,04,0.00
2005,09,01,06,05,0.00
2005,09,01,06,06,0.00
2005,09,01,06,07,0.00
2005,09,01,06,08,0.00
2005,09,01,06,09,0.00
2005,09,01,06,10,0.00
2005,09,01,06,11,0.00
2005,09,01,06,12,0.00
2005,09,01,06,13,0.00
2005,09,01,06,14,0.00
2005,09,01,06,15,0.00
2005,09,01,06,16,0.00
2005,09,01,06,17,0.00
2005,09,01,06,18,0.00
2005,09,01,06,19,0.00
2005,09,01,06,20,0.00
2005,09,01,06,21,0.00
2005,09,01,06,22,0.00
2005,09,01,06,23,0.00
2005,09,01,06,24,0.00
2005,09,01,06,25,0.00
2005,09,01,06,26,0.00
2005,09,01,06,27,0.00
2005,09,01,06,28,0.00
2005,09,01,06,29,0.00
2005,09,01,06,30,0.00
2005,09,01,06,31,0.00
2005,09,01,06,32,2.50
2005,09,01,06,33,5.00
2005,09,01,06,34,5.00
2005,09,01,06,35,5.10
2005,09,01,06,36,7.00
2005,09,01,06,37,7.70
2005,09,01,06,38,9.00
2005,09,01,06,39,9.00
2005,09,01,06,40,10.60
2005,09,01,06,41,11.10
2005,09,01,06,42,12.00
2005,09,01,06,43,12.80
2005,09,01,06,44,14.00
2005,09,01,06,45,15.30
2005,09,01,06,46,16.00
2005,09,01,06,47,18.10
2005,09,01,06,48,19.50
2005,09,01,06,49,22.60
2005,09,01,06,50,25.50
2005,09,01,06,51,25.30
2005,09,01,06,52,23.30
2005,09,01,06,53,23.20
2005,09,01,06,54,25.00
2005,09,01,06,55,25.40
2005,09,01,06,56,27.10
2005,09,01,06,57,29.40
2005,09,01,06,58,31.70
2005,09,01,06,59,36.30
2005,09,01,07,00,45.30
2005,09,01,07,01,47.80
2005,09,01,07,02,50.20
2005,09,01,07,03,63.30
2005,09,01,07,04,75.20
2005,09,01,07,05,65.80
2005,09,01,07,06,46.90
2005,09,01,07,07,42.00
2005,09,01,07,08,60.00
2005,09,01,07,09,68.30
2005,09,01,07,10,58.50
2005,09,01,07,11,51.40
2005,09,01,07,12,51.70
2005,09,01,07,13,46.80
2005,09,01,07,14,41.60
2005,09,01,07,15,37.60
2005,09,01,07,16,40.00
2005,09,01,07,17,46.00
2005,09,01,07,18,45.30
2005,09,01,07,19,46.60
2005,09,01,07,20,49.00
2005,09,01,07,21,70.30
2005,09,01,07,22,112.80
2005,09,01,07,23,129.80
2005,09,01,07,24,135.00
2005,09,01,07,25,128.70
2005,09,01,07,26,110.40
2005,09,01,07,27,102.50
2005,09,01,07,28,120.80
2005,09,01,07,29,126.70
2005,09,01,07,30,119.40
2005,09,01,07,31,117.30
2005,09,01,07,32,130.30
2005,09,01,07,33,144.40
2005,09,01,07,34,154.10
2005,09,01,07,35,164.10
2005,09,01,07,36,162.60
2005,09,01,07,37,164.20
2005,09,01,07,38,174.50
2005,09,01,07,39,198.10
2005,09,01,07,40,202.60
2005,09,01,07,41,198.50
2005,09,01,07,42,188.20
2005,09,01,07,43,180.80
2005,09,01,07,44,167.60
2005,09,01,07,45,145.80
2005,09,01,07,46,130.30
2005,09,01,07,47,147.40
2005,09,01,07,48,143.80
2005,09,01,07,49,141.00
2005,09,01,07,50,150.10
2005,09,01,07,51,151.40
2005,09,01,07,52,154.70
2005,09,01,07,53,152.40
2005,09,01,07,54,147.50
2005,09,01,07,55,154.10
2005,09,01,07,56,200.50
2005,09,01,07,57,235.10
2005,09,01,07,58,237.60
2005,09,01,07,59,200.50
2005,09,01,08,00,168.30
2005,09,01,08,01,183.00
2005,09,01,08,02,177.80
2005,09,01,08,03,151.60
2005,09,01,08,04,162.50
2005,09,01,08,05,211.40
2005,09,01,08,06,174.10
2005,09,01,08,07,146.80
2005,09,01,08,08,145.60
2005,09,01,08,09,146.30
2005,09,01,08,10,155.80
2005,09,01,08,11,176.70
2005,09,01,08,12,178.60
2005,09,01,08,13,178.30
2005,09,01,08,14,162.70
2005,09,01,08,15,181.40
2005,09,01,08,16,174.70
2005,09,01,08,17,183.10
2005,09,01,08,18,186.00
2005,09,01,08,19,209.80
2005,09,01,08,20,214.10
2005,09,01,08,21,215.90
2005,09,01,08,22,200.50
2005,09,01,08,23,231.50
2005,09,01,08,24,239.90
2005,09,01,08,25,265.50
2005,09,01,08,26,294.80
2005,09,01,08,27,285.10
2005,09,01,08,28,231.20
2005,09,01,08,29,186.40
2005,09,01,08,30,172.80
2005,09,01,08,31,168.80
2005,09,01,08,32,171.50
2005,09,01,08,33,192.90
2005,09,01,08,34,229.60
2005,09,01,08,35,230.20
2005,09,01,08,36,237.80
2005,09,01,08,37,239.00
2005,09,01,08,38,302.30
2005,09,01,08,39,269.50
2005,09,01,08,40,292.10
2005,09,01,08,41,297.00
2005,09,01,08,42,336.60
2005,09,01,08,43,337.80
2005,09,01,08,44,342.20
2005,09,01,08,45,318.60
2005,09,01,08,46,315.30
2005,09,01,08,47,310.00
2005,09,01,08,48,301.00
2005,09,01,08,49,344.20
2005,09,01,08,50,386.20
2005,09,01,08,51,398.80
2005,09,01,08,52,406.90
2005,09,01,08,53,377.90
2005,09,01,08,54,372.00
2005,09,01,08,55,376.40
2005,09,01,08,56,397.60
2005,09,01,08,57,419.80
2005,09,01,08,58,408.00
2005,09,01,08,59,401.40
2005,09,01,09,00,403.00
2005,09,01,09,01,406.00
2005,09,01,09,02,401.80
2005,09,01,09,03,372.20
2005,09,01,09,04,388.10
2005,09,01,09,05,419.80
2005,09,01,09,06,442.10
2005,09,01,09,07,453.60
2005,09,01,09,08,437.50
2005,09,01,09,09,431.70
2005,09,01,09,10,421.90
2005,09,01,09,11,416.00
2005,09,01,09,12,419.50
2005,09,01,09,13,414.90
2005,09,01,09,14,351.80
2005,09,01,09,15,295.70
2005,09,01,09,16,289.00
2005,09,01,09,17,332.40
2005,09,01,09,18,341.80
2005,09,01,09,19,350.60
2005,09,01,09,20,384.40
2005,09,01,09,21,407.00
2005,09,01,09,22,410.50
2005,09,01,09,23,403.00
2005,09,01,09,24,403.00
2005,09,01,09,25,403.10
2005,09,01,09,26,408.20
2005,09,01,09,27,419.50
2005,09,01,09,28,421.50
2005,09,01,09,29,445.70
2005,09,01,09,30,439.00
2005,09,01,09,31,483.40
2005,09,01,09,32,512.00
2005,09,01,09,33,480.70
2005,09,01,09,34,427.00
2005,09,01,09,35,477.60
2005,09,01,09,36,526.60
2005,09,01,09,37,514.20
2005,09,01,09,38,527.50
2005,09,01,09,39,532.40
2005,09,01,09,40,506.60
2005,09,01,09,41,515.00
2005,09,01,09,42,513.90
2005,09,01,09,43,550.20
2005,09,01,09,44,488.80
2005,09,01,09,45,401.30
2005,09,01,09,46,336.20
2005,09,01,09,47,352.10
2005,09,01,09,48,313.30
2005,09,01,09,49,300.40
2005,09,01,09,50,249.50
2005,09,01,09,51,340.90
2005,09,01,09,52,346.40
2005,09,01,09,53,316.00
2005,09,01,09,54,244.10
2005,09,01,09,55,245.10
2005,09,01,09,56,299.30
2005,09,01,09,57,322.00
2005,09,01,09,58,388.00
2005,09,01,09,59,470.20
2005,09,01,10,00,483.00
2005,09,01,10,01,483.00
2005,09,01,10,02,511.00
2005,09,01,10,03,563.00
2005,09,01,10,04,563.00
2005,09,01,10,05,530.00
2005,09,01,10,06,513.30
2005,09,01,10,07,448.10
2005,09,01,10,08,396.00
2005,09,01,10,09,411.40
2005,09,01,10,10,424.00
2005,09,01,10,11,561.60
2005,09,01,10,12,598.20
2005,09,01,10,13,602.20
2005,09,01,10,14,604.00
2005,09,01,10,15,603.10
2005,09,01,10,16,609.50
2005,09,01,10,17,612.80
2005,09,01,10,18,617.00
2005,09,01,10,19,617.00
2005,09,01,10,20,548.80
2005,09,01,10,21,504.50
2005,09,01,10,22,595.60
2005,09,01,10,23,621.50
2005,09,01,10,24,621.90
2005,09,01,10,25,619.20
2005,09,01,10,26,617.90
2005,09,01,10,27,622.00
2005,09,01,10,28,623.50
2005,09,01,10,29,624.00
2005,09,01,10,30,622.30
2005,09,01,10,31,623.40
2005,09,01,10,32,622.90
2005,09,01,10,33,624.00
2005,09,01,10,34,627.80
2005,09,01,10,35,630.80
2005,09,01,10,36,630.80
2005,09,01,10,37,610.00
2005,09,01,10,38,587.30
2005,09,01,10,39,530.40
2005,09,01,10,40,514.00
2005,09,01,10,41,559.60
2005,09,01,10,42,620.60
2005,09,01,10,43,663.00
2005,09,01,10,44,663.50
2005,09,01,10,45,664.00
2005,09,01,10,46,665.50
2005,09,01,10,47,667.80
2005,09,01,10,48,668.40
2005,09,01,10,49,670.00
2005,09,01,10,50,672.80
2005,09,01,10,51,676.40
2005,09,01,10,52,677.00
2005,09,01,10,53,680.30
2005,09,01,10,54,684.40
2005,09,01,10,55,685.20
2005,09,01,10,56,689.30
2005,09,01,10,57,696.60
2005,09,01,10,58,700.50
2005,09,01,10,59,706.10
2005,09,01,11,00,716.50
2005,09,01,11,01,723.00
2005,09,01,11,02,732.60
2005,09,01,11,03,742.60
2005,09,01,11,04,713.80
2005,09,01,11,05,726.70
2005,09,01,11,06,763.80
2005,09,01,11,07,769.90
2005,09,01,11,08,766.80
2005,09,01,11,09,707.00
2005,09,01,11,10,680.00
2005,09,01,11,11,559.00
2005,09,01,11,12,619.00
2005,09,01,11,13,762.20
2005,09,01,11,14,764.30
2005,09,01,11,15,756.10
2005,09,01,11,16,739.70
2005,09,01,11,17,732.80
2005,09,01,11,18,701.20
2005,09,01,11,19,699.40
2005,09,01,11,20,698.00
2005,09,01,11,21,683.20
2005,09,01,11,22,651.20
2005,09,01,11,23,615.00
2005,09,01,11,24,615.00
2005,09,01,11,25,612.40
2005,09,01,11,26,586.00
2005,09,01,11,27,565.10
2005,09,01,11,28,533.70
2005,09,01,11,29,590.50
2005,09,01,11,30,631.30
2005,09,01,11,31,697.50
2005,09,01,11,32,734.90
2005,09,01,11,33,684.10
2005,09,01,11,34,667.30
2005,09,01,11,35,644.50
2005,09,01,11,36,628.60
2005,09,01,11,37,622.20
2005,09,01,11,38,661.80
2005,09,01,11,39,666.80
2005,09,01,11,40,620.90
2005,09,01,11,41,612.00
2005,09,01,11,42,612.00
2005,09,01,11,43,659.30
2005,09,01,11,44,709.90
2005,09,01,11,45,669.10
2005,09,01,11,46,710.00
2005,09,01,11,47,643.10
2005,09,01,11,48,687.40
2005,09,01,11,49,749.20
2005,09,01,11,50,779.30
2005,09,01,11,51,773.90
2005,09,01,11,52,743.20
2005,09,01,11,53,735.80
2005,09,01,11,54,751.50
2005,09,01,11,55,775.60
2005,09,01,11,56,775.00
2005,09,01,11,57,754.70
2005,09,01,11,58,760.80
2005,09,01,11,59,720.00
2005,09,01,12,00,664.80
2005,09,01,12,01,661.00
2005,09,01,12,02,661.00
2005,09,01,12,03,660.80
2005,09,01,12,04,644.80
2005,09,01,12,05,591.70
2005,09,01,12,06,572.00
2005,09,01,12,07,566.00
2005,09,01,12,08,566.00
2005,09,01,12,09,585.00
2005,09,01,12,10,766.00
2005,09,01,12,11,766.00
2005,09,01,12,12,771.00
2005,09,01,12,13,770.20
2005,09,01,12,14,762.50
2005,09,01,12,15,774.50
2005,09,01,12,16,778.50
2005,09,01,12,17,778.20
2005,09,01,12,18,781.10
2005,09,01,12,19,782.00
2005,09,01,12,20,779.60
2005,09,01,12,21,784.40
2005,09,01,12,22,788.00
2005,09,01,12,23,788.00
2005,09,01,12,24,790.60
2005,09,01,12,25,780.40
2005,09,01,12,26,775.00
2005,09,01,12,27,730.50
2005,09,01,12,28,726.00
2005,09,01,12,29,739.90
2005,09,01,12,30,759.00
2005,09,01,12,31,756.90
2005,09,01,12,32,791.80
2005,09,01,12,33,789.90
2005,09,01,12,34,794.40
2005,09,01,12,35,793.80
2005,09,01,12,36,795.00
2005,09,01,12,37,795.00
2005,09,01,12,38,793.20
2005,09,01,12,39,782.00
2005,09,01,12,40,782.00
2005,09,01,12,41,782.00
2005,09,01,12,42,791.60
2005,09,01,12,43,798.00
2005,09,01,12,44,798.00
2005,09,01,12,45,798.00
2005,09,01,12,46,798.00
2005,09,01,12,47,798.00
2005,09,01,12,48,799.20
2005,09,01,12,49,798.40
2005,09,01,12,50,800.10
2005,09,01,12,51,803.00
2005,09,01,12,52,803.00
2005,09,01,12,53,803.00
2005,09,01,12,54,804.40
2005,09,01,12,55,806.60
2005,09,01,12,56,807.20
2005,09,01,12,57,807.50
2005,09,01,12,58,805.20
2005,09,01,12,59,810.50
2005,09,01,13,00,810.60
2005,09,01,13,01,813.40
2005,09,01,13,02,815.90
2005,09,01,13,03,816.20
2005,09,01,13,04,817.80
2005,09,01,13,05,820.10
2005,09,01,13,06,822.40
2005,09,01,13,07,825.50
2005,09,01,13,08,817.20
2005,09,01,13,09,809.60
2005,09,01,13,10,819.80
2005,09,01,13,11,831.70
2005,09,01,13,12,798.80
2005,09,01,13,13,825.50
2005,09,01,13,14,834.70
2005,09,01,13,15,833.00
2005,09,01,13,16,833.00
2005,09,01,13,17,833.00
2005,09,01,13,18,820.50
2005,09,01,13,19,822.50
2005,09,01,13,20,828.00
2005,09,01,13,21,827.40
2005,09,01,13,22,827.80
2005,09,01,13,23,817.40
2005,09,01,13,24,810.00
2005,09,01,13,25,797.70
2005,09,01,13,26,813.60
2005,09,01,13,27,810.20
2005,09,01,13,28,806.10
2005,09,01,13,29,806.20
2005,09,01,13,30,803.80
2005,09,01,13,31,801.80
2005,09,01,13,32,793.70
2005,09,01,13,33,773.80
2005,09,01,13,34,795.80
2005,09,01,13,35,809.30
2005,09,01,13,36,809.00
2005,09,01,13,37,799.60
2005,09,01,13,38,735.00
2005,09,01,13,39,795.00
2005,09,01,13,40,795.50
2005,09,01,13,41,791.10
2005,09,01,13,42,789.00
2005,09,01,13,43,793.00
2005,09,01,13,44,793.00
2005,09,01,13,45,793.00
2005,09,01,13,46,794.00
2005,09,01,13,47,795.00
2005,09,01,13,48,795.80
2005,09,01,13,49,795.80
2005,09,01,13,50,795.90
2005,09,01,13,51,798.00
2005,09,01,13,52,822.20
2005,09,01,13,53,842.00
2005,09,01,13,54,646.50
2005,09,01,13,55,675.00
2005,09,01,13,56,714.50
2005,09,01,13,57,800.00
2005,09,01,13,58,804.20
2005,09,01,13,59,805.50
2005,09,01,14,00,804.40
2005,09,01,14,01,793.00
2005,09,01,14,02,793.90
2005,09,01,14,03,796.00
2005,09,01,14,04,762.40
2005,09,01,14,05,722.80
2005,09,01,14,06,717.00
2005,09,01,14,07,737.40
2005,09,01,14,08,823.10
2005,09,01,14,09,836.00
2005,09,01,14,10,811.50
2005,09,01,14,11,795.00
2005,09,01,14,12,584.70
2005,09,01,14,13,633.80
2005,09,01,14,14,783.60
2005,09,01,14,15,735.00
2005,09,01,14,16,735.00
2005,09,01,14,17,668.60
2005,09,01,14,18,703.50
2005,09,01,14,19,632.50
2005,09,01,14,20,559.00
2005,09,01,14,21,559.00
2005,09,01,14,22,630.80
2005,09,01,14,23,652.00
2005,09,01,14,24,633.90
2005,09,01,14,25,634.90
2005,09,01,14,26,653.80
2005,09,01,14,27,737.30
2005,09,01,14,28,772.70
2005,09,01,14,29,734.40
2005,09,01,14,30,687.80
2005,09,01,14,31,690.30
2005,09,01,14,32,652.00
2005,09,01,14,33,652.00
2005,09,01,14,34,701.30
2005,09,01,14,35,754.00
2005,09,01,14,36,737.00
2005,09,01,14,37,737.00
2005,09,01,14,38,737.00
2005,09,01,14,39,737.00
2005,09,01,14,40,737.00
2005,09,01,14,41,668.90
2005,09,01,14,42,633.00
2005,09,01,14,43,702.00
2005,09,01,14,44,830.00
2005,09,01,14,45,830.00
2005,09,01,14,46,830.00
2005,09,01,14,47,665.30
2005,09,01,14,48,638.40
2005,09,01,14,49,606.00
2005,09,01,14,50,606.00
2005,09,01,14,51,606.00
2005,09,01,14,52,606.00
2005,09,01,14,53,698.80
2005,09,01,14,54,688.00
2005,09,01,14,55,694.20
2005,09,01,14,56,697.90
2005,09,01,14,57,689.50
2005,09,01,14,58,651.60
2005,09,01,14,59,642.50
2005,09,01,15,00,621.00
2005,09,01,15,01,630.60
2005,09,01,15,02,636.20
2005,09,01,15,03,629.00
2005,09,01,15,04,654.30
2005,09,01,15,05,659.00
2005,09,01,15,06,668.20
2005,09,01,15,07,693.90
2005,09,01,15,08,678.30
2005,09,01,15,09,668.00
2005,09,01,15,10,679.80
2005,09,01,15,11,681.50
2005,09,01,15,12,679.00
2005,09,01,15,13,658.80
2005,09,01,15,14,631.00
2005,09,01,15,15,535.80
2005,09,01,15,16,505.40
2005,09,01,15,17,531.00
2005,09,01,15,18,531.00
2005,09,01,15,19,531.00
2005,09,01,15,20,609.00
2005,09,01,15,21,605.50
2005,09,01,15,22,596.60
2005,09,01,15,23,626.00
2005,09,01,15,24,617.00
2005,09,01,15,25,596.00
2005,09,01,15,26,596.00
2005,09,01,15,27,596.00
2005,09,01,15,28,431.00
2005,09,01,15,29,338.00
2005,09,01,15,30,347.80
2005,09,01,15,31,370.00
2005,09,01,15,32,395.50
2005,09,01,15,33,447.20
2005,09,01,15,34,523.50
2005,09,01,15,35,555.60
2005,09,01,15,36,639.80
2005,09,01,15,37,584.00
2005,09,01,15,38,560.40
2005,09,01,15,39,588.20
2005,09,01,15,40,588.40
2005,09,01,15,41,555.10
2005,09,01,15,42,561.50
2005,09,01,15,43,566.00
2005,09,01,15,44,519.20
2005,09,01,15,45,494.00
2005,09,01,15,46,486.90
2005,09,01,15,47,435.00
2005,09,01,15,48,459.00
2005,09,01,15,49,459.00
2005,09,01,15,50,459.00
2005,09,01,15,51,459.00
2005,09,01,15,52,464.20
2005,09,01,15,53,521.00
2005,09,01,15,54,575.90
2005,09,01,15,55,528.40
2005,09,01,15,56,447.80
2005,09,01,15,57,425.00
2005,09,01,15,58,471.80
2005,09,01,15,59,469.70
2005,09,01,16,00,455.00
2005,09,01,16,01,455.00
2005,09,01,16,02,430.20
2005,09,01,16,03,472.10
2005,09,01,16,04,478.00
2005,09,01,16,05,505.80
2005,09,01,16,06,589.80
2005,09,01,16,07,619.00
2005,09,01,16,08,619.00
2005,09,01,16,09,612.20
2005,09,01,16,10,489.00
2005,09,01,16,11,489.00
2005,09,01,16,12,542.50
2005,09,01,16,13,568.70
2005,09,01,16,14,584.00
2005,09,01,16,15,630.70
2005,09,01,16,16,635.00
2005,09,01,16,17,635.00
2005,09,01,16,18,487.60
2005,09,01,16,19,331.00
2005,09,01,16,20,286.50
2005,09,01,16,21,296.30
2005,09,01,16,22,344.80
2005,09,01,16,23,413.00
2005,09,01,16,24,332.50
2005,09,01,16,25,254.10
2005,09,01,16,26,248.60
2005,09,01,16,27,261.20
2005,09,01,16,28,285.30
2005,09,01,16,29,258.00
2005,09,01,16,30,258.00
2005,09,01,16,31,263.20
2005,09,01,16,32,265.00
2005,09,01,16,33,265.30
2005,09,01,16,34,266.20
2005,09,01,16,35,264.00
2005,09,01,16,36,276.20
2005,09,01,16,37,291.30
2005,09,01,16,38,290.40
2005,09,01,16,39,261.60
2005,09,01,16,40,269.80
2005,09,01,16,41,278.40
2005,09,01,16,42,298.80
2005,09,01,16,43,332.80
2005,09,01,16,44,388.60
2005,09,01,16,45,429.20
2005,09,01,16,46,540.90
2005,09,01,16,47,478.00
2005,09,01,16,48,334.00
2005,09,01,16,49,271.00
2005,09,01,16,50,311.50
2005,09,01,16,51,304.80
2005,09,01,16,52,342.80
2005,09,01,16,53,385.80
2005,09,01,16,54,369.00
2005,09,01,16,55,325.80
2005,09,01,16,56,297.60
2005,09,01,16,57,362.00
2005,09,01,16,58,290.40
2005,09,01,16,59,278.10
2005,09,01,17,00,316.60
2005,09,01,17,01,386.10
2005,09,01,17,02,386.10
2005,09,01,17,03,234.80
2005,09,01,17,04,248.80
2005,09,01,17,05,240.90
2005,09,01,17,06,218.00
2005,09,01,17,07,214.00
2005,09,01,17,08,220.60
2005,09,01,17,09,265.40
2005,09,01,17,10,366.10
2005,09,01,17,11,362.00